QPF
0.00 0.00 0.00 0.00 0.00 0.00 0.00 0.00 0.00 0.00 0.00 0.00 0.00 0.00 0.00 0.03 0.09 0.11 0.05 0.03 0.04 0.05 0.02 0.00 0.00 0.00 0.00 0.00 0.01 0.01 0.01 0.01 0.00 0.00 0.00 0.00 0.00 0.00 0.00 0.00 0.00 0.00 0.00 0.00 0.00 0.00 0.00 0.00 0.00 0.00 0.00 0.00 0.00 0.00
0.00 0.00 0.00 0.00 0.00 0.00 0.00 0.00 0.00 0.00 0.00 0.00 0.00 0.00 0.00 0.01 0.07 0.13 0.09 0.04 0.04 0.04 0.03 0.00 0.00 0.00 0.00 0.00 0.02 0.02 0.02 0.01 0.01 0.00 0.01 0.00 0.00 0.00 0.00 0.00 0.00 0.00 0.00 0.00 0.00 0.00 0.00 0.00 0.00 0.00 0.00 0.00 0.00 0.00
0.00 0.00 0.00 0.00 0.00 0.00 0.00 0.00 0.00 0.00 0.00 0.00 0.00 0.00 0.00 0.00 0.03 0.05 0.03 0.03 0.04 0.05 0.03 0.01 0.00 0.00 0.00 0.00 0.00 0.01 0.01 0.01 0.01 0.00 0.01 0.00 0.00 0.00 0.00 0.00 0.00 0.00 0.00 0.00 0.00 0.00 0.00 0.00 0.00 0.00 0.00 0.00 0.00 0.00
0.00 0.00 0.00 0.00 0.00 0.00 0.00 0.00 0.00 0.00 0.00 0.00 0.00 0.00 0.00 0.00 0.01 0.03 0.01 0.01 0.05 0.07 0.04 0.01 0.00 0.00 0.00 0.00 0.00 0.00 0.00 0.00 0.00 0.00 0.03 0.05 0.01 0.00 0.00 0.00 0.00 0.00 0.00 0.00 0.00 0.00 0.00 0.00 0.00 0.00 0.00 0.00 0.00 0.00
0.00 0.00 0.00 0.00 0.00 0.00 0.00 0.00 0.00 0.00 0.00 0.00 0.00 0.00 0.00 0.00 0.00 0.02 0.00 0.00 0.02 0.05 0.04 0.03 0.02 0.01 0.00 0.00 0.01 0.00 0.01 0.01 0.00 0.02 0.04 0.02 0.00 0.00 0.00 0.00 0.00 0.00 0.00 0.00 0.00 0.00 0.00 0.00 0.00 0.00 0.00 0.00 0.00 0.00
0.00 0.00 0.00 0.00 0.00 0.00 0.00 0.00 0.00 0.00 0.00 0.00 0.00 0.00 0.00 0.00 0.00 0.00 0.01 0.00 0.00 0.02 0.07 0.04 0.01 0.00 0.00 0.00 0.00 0.00 0.00 0.00 0.00 0.00 0.00 0.00 0.00 0.00 0.00 0.00 0.00 0.00 0.00 0.00 0.00 0.00 0.00 0.00 0.00 0.00 0.00 0.00 0.00 0.00
0.00 0.00 0.00 0.00 0.00 0.00 0.00 0.00 0.00 0.00 0.00 0.00 0.00 0.00 0.00 0.00 0.00 0.00 0.00 0.00 0.00 0.01 0.03 0.01 0.00 0.00 0.00 0.00 0.00 0.00 0.00 0.00 0.00 0.00 0.00 0.00 0.00 0.00 0.00 0.00 0.00 0.00 0.00 0.00 0.00 0.00 0.00 0.00 0.00 0.00 0.00 0.00 0.00 0.00
0.00 0.00 0.00 0.00 0.00 0.00 0.00 0.00 0.00 0.00 0.00 0.01 0.00 0.00 0.00 0.00 0.00 0.00 0.00 0.01 0.01 0.00 0.01 0.02 0.01 0.00 0.00 0.00 0.00 0.00 0.00 0.00 0.00 0.00 0.00 0.00 0.00 0.01 0.01 0.00 0.00 0.00 0.00 0.00 0.00 0.00 0.00 0.00 0.00 0.00 0.00 0.00 0.00 0.00
0.00 0.00 0.00 0.00 0.00 0.00 0.01 0.01 0.00 0.00 0.00 0.00 0.00 0.00 0.00 0.00 0.00 0.00 0.00 0.00 0.00 0.00 0.01 0.02 0.00 0.00 0.00 0.00 0.00 0.00 0.00 0.01 0.01 0.01 0.00 0.00 0.00 0.00 0.00 0.00 0.00 0.00 0.00 0.00 0.00 0.00 0.00 0.00 0.00 0.00 0.00 0.00 0.00 0.00
0.00 0.00 0.00 0.00 0.00 0.00 0.00 0.01 0.01 0.00 0.00 0.00 0.00 0.00 0.00 0.00 0.00 0.00 0.00 0.00 0.01 0.01 0.01 0.00 0.00 0.00 0.00 0.00 0.00 0.00 0.00 0.00 0.00 0.00 0.00 0.01 0.00 0.00 0.00 0.00 0.00 0.00 0.00 0.00 0.00 0.00 0.00 0.00 0.00 0.00 0.00 0.00 0.00 0.01
0.00 0.00 0.00 0.00 0.00 0.00 0.00 0.00 0.01 0.01 0.00 0.00 0.00 0.00 0.00 0.00 0.00 0.00 0.00 0.01 0.01 0.01 0.00 0.00 0.00 0.00 0.00 0.00 0.00 0.00 0.00 0.00 0.00 0.00 0.00 0.00 0.00 0.00 0.00 0.00 0.00 0.00 0.00 0.00 0.00 0.00 0.00 0.00 0.00 0.00 0.00 0.00 0.00 0.01
0.00 0.00 0.00 0.00 0.00 0.00 0.00 0.00 0.03 0.02 0.00 0.00 0.00 0.00 0.00 0.00 0.00 0.00 0.00 0.00 0.01 0.00 0.00 0.00 0.00 0.00 0.00 0.00 0.00 0.01 0.01 0.01 0.00 0.00 0.00 0.00 0.00 0.00 0.00 0.00 0.00 0.00 0.00 0.00 0.00 0.00 0.00 0.00 0.00 0.00 0.00 0.00 0.00 0.02
0.01 0.00 0.00 0.00 0.00 0.00 0.01 0.01 0.05 0.03 0.01 0.00 0.01 0.00 0.00 0.00 0.01 0.01 0.00 0.00 0.00 0.00 0.00 0.00 0.00 0.00 0.00 0.01 0.02 0.02 0.01 0.01 0.00 0.00 0.00 0.00 0.00 0.00 0.00 0.00 0.00 0.00 0.00 0.00 0.00 0.00 0.00 0.00 0.00 0.00 0.00 0.00 0.01 0.01
0.00 0.00 0.00 0.00 0.00 0.00 0.01 0.02 0.07 0.07 0.08 0.04 0.03 0.00 0.00 0.00 0.00 0.00 0.00 0.00 0.00 0.00 0.00 0.00 0.00 0.00 0.00 0.01 0.01 0.01 0.01 0.01 0.01 0.00 0.00 0.00 0.00 0.00 0.00 0.00 0.00 0.00 0.00 0.00 0.00 0.00 0.00 0.00 0.00 0.00 0.00 0.00 0.00 0.01
0.00 0.00 0.00 0.00 0.00 0.00 0.00 0.01 0.09 0.10 0.11 0.08 0.03 0.00 0.00 0.00 0.00 0.00 0.00 0.00 0.00 0.00 0.00 0.00 0.00 0.01 0.01 0.03 0.02 0.02 0.02 0.01 0.00 0.00 0.00 0.00 0.00 0.00 0.00 0.00 0.00 0.00 0.00 0.00 0.00 0.00 0.00 0.00 0.00 0.00 0.00 0.00 0.01 0.01
0.01 0.01 0.00 0.00 0.00 0.01 0.01 0.04 0.10 0.16 0.19 0.15 0.10 0.00 0.00 0.00 0.00 0.00 0.00 0.00 0.00 0.00 0.00 0.00 0.01 0.01 0.01 0.01 0.03 0.01 0.00 0.00 0.00 0.00 0.00 0.00 0.00 0.01 0.00 0.00 0.00 0.00 0.00 0.00 0.00 0.00 0.00 0.00 0.00 0.00 0.00 0.00 0.00 0.00
0.05 0.01 0.00 0.00 0.00 0.01 0.04 0.06 0.08 0.11 0.20 0.17 0.05 0.00 0.00 0.00 0.00 0.00 0.00 0.00 0.00 0.00 0.00 0.00 0.01 0.01 0.00 0.02 0.01 0.00 0.00 0.00 0.00 0.00 0.00 0.00 0.00 0.00 0.00 0.00 0.00 0.00 0.00 0.00 0.00 0.00 0.00 0.00 0.00 0.00 0.00 0.00 0.00 0.00
0.06 0.00 0.00 0.00 0.01 0.04 0.07 0.08 0.13 0.12 0.08 0.02 0.01 0.00 0.00 0.00 0.00 0.00 0.00 0.00 0.00 0.00 0.00 0.00 0.01 0.02 0.01 0.02 0.02 0.01 0.00 0.00 0.00 0.00 0.00 0.00 0.00 0.00 0.00 0.00 0.00 0.00 0.00 0.00 0.00 0.00 0.00 0.00 0.00 0.00 0.00 0.00 0.00 0.00
0.01 0.01 0.01 0.01 0.05 0.06 0.14 0.19 0.15 0.17 0.06 0.00 0.00 0.00 0.00 0.00 0.00 0.00 0.00 0.00 0.00 0.00 0.00 0.04 0.10 0.07 0.00 0.00 0.00 0.00 0.00 0.00 0.00 0.00 0.00 0.00 0.00 0.00 0.00 0.00 0.00 0.00 0.00 0.00 0.00 0.00 0.00 0.00 0.00 0.00 0.00 0.00 0.00 0.00
0.04 0.04 0.03 0.03 0.06 0.23 0.35 0.27 0.17 0.12 0.05 0.00 0.00 0.00 0.00 0.00 0.00 0.00 0.00 0.00 0.00 0.01 0.05 0.08 0.05 0.01 0.00 0.00 0.00 0.00 0.00 0.00 0.00 0.00 0.00 0.00 0.00 0.00 0.00 0.00 0.00 0.00 0.00 0.00 0.00 0.00 0.01 0.01 0.00 0.01 0.01 0.00 0.00 0.00
0.05 0.03 0.05 0.07 0.12 0.25 0.28 0.18 0.12 0.09 0.02 0.00 0.00 0.00 0.00 0.00 0.00 0.00 0.00 0.00 0.01 0.04 0.04 0.01 0.00 0.00 0.00 0.00 0.00 0.00 0.00 0.00 0.00 0.01 0.02 0.02 0.00 0.00 0.00 0.00 0.00 0.00 0.00 0.00 0.00 0.00 0.01 0.00 0.00 0.01 0.01 0.01 0.00 0.00
0.02 0.03 0.05 0.08 0.30 0.48 0.34 0.24 0.12 0.04 0.00 0.00 0.00 0.00 0.00 0.00 0.00 0.00 0.00 0.01 0.00 0.00 0.00 0.00 0.00 0.00 0.00 0.00 0.00 0.00 0.00 0.00 0.01 0.01 0.01 0.02 0.02 0.01 0.00 0.00 0.00 0.00 0.00 0.00 0.00 0.00 0.00 0.00 0.01 0.01 0.01 0.00 0.00 0.00
0.16 0.11 0.21 0.30 0.39 0.36 0.25 0.14 0.09 0.04 0.01 0.00 0.00 0.00 0.00 0.00 0.00 0.00 0.00 0.00 0.00 0.00 0.00 0.00 0.00 0.00 0.00 0.00 0.00 0.00 0.00 0.01 0.02 0.01 0.00 0.00 0.00 0.00 0.00 0.00 0.00 0.00 0.01 0.00 0.00 0.01 0.01 0.01 0.01 0.01 0.00 0.01 0.00 0.00
0.32 0.28 0.25 0.29 0.20 0.18 0.14 0.10 0.07 0.05 0.02 0.00 0.00 0.00 0.00 0.00 0.00 0.00 0.00 0.00 0.00 0.00 0.00 0.00 0.00 0.00 0.00 0.00 0.00 0.00 0.00 0.01 0.01 0.00 0.00 0.00 0.01 0.00 0.00 0.00 0.00 0.00 0.00 0.02 0.02 0.02 0.02 0.02 0.02 0.01 0.01 0.01 0.01 0.00
0.29 0.29 0.22 0.13 0.05 0.02 0.02 0.03 0.03 0.02 0.01 0.01 0.01 0.02 0.01 0.01 0.01 0.01 0.00 0.00 0.00 0.00 0.00 0.00 0.00 0.00 0.00 0.00 0.00 0.00 0.01 0.02 0.02 0.00 0.00 0.01 0.02 0.01 0.00 0.00 0.00 0.00 0.01 0.04 0.02 0.02 0.03 0.03 0.03 0.01 0.01 0.01 0.01 0.00
0.14 0.09 0.05 0.02 0.01 0.00 0.00 0.00 0.00 0.00 0.00 0.01 0.02 0.02 0.01 0.00 0.00 0.00 0.00 0.00 0.00 0.00 0.00 0.00 0.00 0.00 0.00 0.02 0.01 0.00 0.00 0.00 0.01 0.01 0.00 0.00 0.00 0.01 0.01 0.00 0.00 0.00 0.00 0.01 0.03 0.02 0.03 0.03 0.04 0.02 0.01 0.01 0.00 0.00
0.07 0.06 0.03 0.01 0.01 0.00 0.00 0.00 0.00 0.00 0.00 0.01 0.01 0.00 0.00 0.00 0.00 0.00 0.00 0.00 0.00 0.00 0.00 0.00 0.01 0.01 0.00 0.00 0.00 0.00 0.00 0.00 0.00 0.00 0.00 0.00 0.00 0.00 0.01 0.02 0.01 0.00 0.00 0.01 0.03 0.02 0.03 0.04 0.04 0.03 0.02 0.01 0.00 0.00
0.01 0.01 0.00 0.01 0.01 0.01 0.01 0.00 0.00 0.00 0.00 0.00 0.00 0.00 0.00 0.00 0.00 0.00 0.00 0.00 0.00 0.00 0.01 0.02 0.01 0.00 0.00 0.00 0.00 0.00 0.00 0.00 0.00 0.00 0.00 0.00 0.00 0.00 0.00 0.01 0.01 0.01 0.02 0.02 0.02 0.04 0.05 0.05 0.04 0.03 0.02 0.01 0.01 0.00
0.00 0.00 0.00 0.00 0.00 0.00 0.00 0.00 0.00 0.00 0.00 0.00 0.00 0.00 0.00 0.00 0.00 0.00 0.00 0.00 0.00 0.00 0.00 0.00 0.00 0.00 0.00 0.00 0.00 0.00 0.00 0.01 0.01 0.00 0.00 0.00 0.00 0.00 0.00 0.00 0.00 0.00 0.01 0.01 0.02 0.05 0.05 0.06 0.05 0.03 0.02 0.01 0.00 0.00
0.00 0.00 0.00 0.00 0.01 0.00 0.00 0.00 0.00 0.00 0.01 0.01 0.01 0.01 0.01 0.01 0.01 0.00 0.00 0.00 0.00 0.00 0.00 0.00 0.00 0.00 0.00 0.00 0.00 0.00 0.00 0.00 0.01 0.03 0.03 0.01 0.01 0.00 0.00 0.00 0.00 0.00 0.01 0.02 0.02 0.04 0.08 0.11 0.09 0.07 0.04 0.01 0.00 0.00
0.00 0.00 0.01 0.00 0.00 0.00 0.01 0.02 0.02 0.02 0.02 0.02 0.02 0.02 0.02 0.02 0.01 0.01 0.00 0.00 0.00 0.00 0.01 0.01 0.00 0.00 0.00 0.00 0.00 0.00 0.00 0.00 0.00 0.00 0.01 0.04 0.03 0.02 0.01 0.01 0.01 0.01 0.01 0.02 0.03 0.04 0.07 0.06 0.05 0.05 0.04 0.02 0.00 0.00
0.00 0.01 0.01 0.01 0.00 0.00 0.01 0.01 0.02 0.01 0.01 0.01 0.01 0.01 0.01 0.01 0.01 0.01 0.00 0.00 0.00 0.01 0.01 0.01 0.00 0.00 0.00 0.01 0.01 0.01 0.02 0.01 0.01 0.01 0.03 0.05 0.03 0.01 0.01 0.01 0.01 0.02 0.02 0.03 0.04 0.05 0.06 0.07 0.08 0.07 0.03 0.00 0.00 0.00
0.00 0.00 0.00 0.01 0.00 0.00 0.00 0.01 0.02 0.01 0.00 0.00 0.00 0.00 0.00 0.00 0.01 0.01 0.00 0.01 0.01 0.01 0.01 0.01 0.00 0.01 0.01 0.00 0.00 0.00 0.00 0.00 0.01 0.02 0.02 0.02 0.04 0.03 0.02 0.02 0.02 0.03 0.03 0.04 0.05 0.06 0.07 0.07 0.05 0.03 0.01 0.00 0.00 0.00
MSLP
1028.59 1028.70 1028.54 1028.44 1028.25 1028.47 1028.26 1027.86 1027.59 1027.39 1027.14 1026.89 1026.70 1026.26 1025.92 1025.59 1025.84 1026.66 1027.52 1027.70 1028.07 1028.86 1028.28 1028.02 1027.97 1028.46 1029.25 1029.35 1030.45 1032.65 1033.24 1033.41 1033.67 1033.67 1033.30 1032.39 1032.57 1032.16 1032.48 1032.67 1032.90 1033.07 1033.26 1032.35 1031.33 1029.05 1023.83 1020.47 1022.01 1021.23 1018.12 1017.14 1017.30 1017.58
1028.67 1028.80 1028.92 1028.83 1028.85 1028.58 1028.02 1027.99 1027.91 1027.69 1027.28 1027.13 1026.76 1026.40 1025.96 1025.53 1025.36 1026.29 1027.39 1027.89 1027.97 1028.59 1028.23 1027.97 1027.71 1027.69 1027.71 1027.68 1029.19 1031.51 1031.14 1031.62 1031.53 1032.18 1032.14 1032.06 1031.84 1031.84 1031.51 1031.15 1030.57 1030.17 1028.00 1026.59 1025.69 1021.76 1018.49 1018.90 1017.94 1017.30 1017.11 1016.79 1016.11 1016.33
1029.00 1028.98 1029.06 1029.11 1028.89 1028.42 1028.22 1028.00 1027.81 1027.64 1027.47 1027.20 1026.88 1026.56 1026.17 1025.73 1025.36 1025.92 1026.97 1027.68 1028.32 1028.61 1028.08 1028.15 1027.43 1027.72 1027.81 1027.88 1027.98 1029.51 1030.60 1029.98 1030.46 1030.08 1030.80 1031.33 1031.05 1030.04 1029.78 1028.71 1028.16 1027.25 1025.17 1025.09 1022.89 1017.79 1017.14 1017.00 1016.21 1015.74 1015.48 1015.68 1015.19 1015.52
1028.99 1028.91 1028.83 1028.80 1028.63 1028.35 1028.09 1028.02 1027.84 1027.55 1027.46 1027.26 1026.95 1026.55 1026.29 1025.93 1025.58 1025.93 1026.61 1026.85 1027.08 1027.67 1027.98 1027.31 1027.63 1028.02 1028.11 1028.14 1027.94 1028.13 1028.63 1029.29 1029.58 1030.18 1030.48 1030.43 1030.01 1028.33 1027.54 1027.13 1026.37 1024.82 1024.46 1022.36 1019.58 1018.05 1014.81 1015.19 1014.82 1014.82 1014.82 1015.07 1015.32 1015.49
1028.50 1028.53 1028.52 1028.52 1028.32 1028.20 1028.05 1027.81 1027.53 1027.47 1027.29 1027.08 1026.84 1026.60 1026.15 1025.80 1025.45 1025.81 1026.47 1026.56 1026.37 1026.71 1026.95 1027.34 1027.79 1028.23 1028.37 1028.40 1028.32 1028.40 1028.54 1029.02 1029.62 1030.40 1030.33 1030.10 1029.12 1028.53 1026.99 1026.87 1023.87 1022.86 1021.79 1021.28 1017.97 1016.26 1016.37 1014.14 1013.06 1013.81 1015.03 1014.96 1015.15 1015.25
1028.06 1027.98 1028.01 1028.22 1028.03 1027.90 1027.80 1027.68 1027.46 1027.29 1027.12 1026.89 1026.66 1026.45 1026.08 1025.71 1025.59 1025.82 1026.59 1026.29 1026.43 1026.70 1027.00 1027.55 1028.04 1028.23 1028.53 1028.57 1028.57 1028.83 1028.62 1028.93 1029.14 1029.19 1029.22 1028.72 1028.78 1028.43 1027.21 1024.92 1018.86 1019.12 1018.97 1018.80 1017.38 1015.67 1016.22 1015.57 1014.31 1014.32 1014.54 1014.30 1014.58 1015.10
1027.53 1027.61 1027.69 1027.67 1027.61 1027.55 1027.41 1027.47 1027.37 1027.15 1026.96 1026.71 1026.37 1026.02 1025.47 1025.60 1025.69 1026.22 1026.68 1026.69 1026.45 1026.51 1027.21 1027.50 1028.02 1028.70 1028.90 1028.94 1029.07 1029.10 1029.04 1029.29 1029.29 1029.14 1028.93 1028.83 1028.84 1028.49 1027.10 1023.75 1016.52 1018.56 1018.28 1018.06 1017.81 1017.03 1015.47 1015.40 1014.50 1014.07 1014.85 1014.40 1014.50 1014.74
1027.29 1027.29 1027.26 1027.09 1027.04 1027.00 1027.10 1027.24 1027.09 1027.08 1026.95 1026.67 1026.38 1026.09 1025.62 1026.02 1026.24 1026.60 1026.77 1026.47 1026.66 1026.89 1027.25 1027.52 1027.83 1029.13 1029.29 1029.33 1029.80 1029.71 1029.37 1029.33 1029.18 1028.92 1029.10 1029.01 1029.16 1028.53 1026.14 1019.56 1018.63 1018.18 1018.20 1018.01 1017.60 1017.71 1016.98 1015.20 1014.30 1014.59 1015.03 1015.21 1015.20 1015.34
1026.60 1026.65 1026.70 1026.73 1026.56 1026.55 1026.50 1026.70 1026.86 1026.94 1026.90 1026.59 1026.40 1026.16 1026.30 1026.77 1027.13 1027.18 1026.69 1026.81 1027.17 1027.55 1027.23 1027.21 1027.86 1028.43 1029.23 1029.48 1029.70 1030.08 1030.06 1030.09 1029.61 1029.28 1029.24 1029.14 1028.48 1026.74 1021.61 1019.73 1019.17 1019.32 1019.11 1018.24 1017.75 1017.13 1016.34 1016.27 1015.30 1014.98 1015.35 1015.67 1015.89 1015.43
1025.81 1025.96 1025.92 1025.93 1026.05 1026.23 1026.34 1026.29 1026.27 1026.47 1026.64 1026.57 1026.49 1026.64 1027.38 1027.81 1027.27 1027.33 1026.74 1026.95 1027.02 1027.26 1026.94 1026.57 1026.75 1028.04 1028.62 1029.62 1029.88 1030.27 1030.43 1030.15 1029.61 1028.67 1029.01 1028.71 1026.42 1023.50 1021.05 1020.87 1020.23 1019.38 1019.08 1018.77 1018.58 1017.43 1016.66 1016.26 1015.92 1015.36 1015.34 1015.13 1015.15 1015.13
1025.18 1025.14 1025.28 1025.24 1025.51 1025.64 1025.74 1025.77 1026.00 1026.12 1026.46 1026.84 1027.47 1028.02 1028.25 1027.79 1027.47 1027.46 1027.51 1027.78 1027.52 1027.34 1026.79 1026.64 1026.75 1027.32 1027.96 1028.62 1029.17 1029.46 1029.68 1030.13 1030.11 1028.99 1029.28 1028.00 1026.26 1022.89 1020.85 1020.88 1020.08 1019.88 1019.46 1019.20 1019.08 1018.23 1017.54 1017.22 1016.55 1015.91 1015.28 1014.92 1014.71 1014.74
1024.41 1024.42 1024.40 1024.46 1024.58 1024.82 1025.08 1025.41 1025.52 1026.27 1026.90 1026.80 1027.60 1028.12 1028.32 1028.23 1028.22 1028.56 1027.75 1027.89 1027.83 1027.27 1027.13 1027.10 1027.20 1027.12 1027.55 1027.40 1027.59 1028.66 1029.05 1029.55 1029.35 1028.71 1028.95 1027.06 1023.47 1021.38 1021.18 1020.46 1019.88 1019.83 1019.45 1019.18 1018.70 1018.23 1017.42 1016.98 1016.36 1015.82 1015.47 1015.05 1014.82 1015.03
1023.51 1023.63 1023.78 1023.81 1024.00 1024.06 1024.23 1024.71 1025.10 1025.79 1026.61 1027.28 1027.77 1028.65 1028.77 1029.19 1029.19 1028.77 1028.13 1027.59 1027.49 1026.57 1026.92 1027.24 1027.51 1027.28 1027.26 1027.30 1027.38 1028.15 1028.64 1028.76 1028.41 1028.69 1026.98 1023.90 1021.52 1020.80 1020.63 1020.08 1019.59 1019.16 1019.13 1019.05 1018.32 1017.74 1017.21 1016.59 1015.92 1015.61 1015.54 1015.16 1015.05 1015.44
1022.76 1022.91 1022.94 1023.00 1023.14 1023.54 1023.65 1023.98 1024.39 1025.60 1026.49 1027.09 1028.03 1029.03 1028.97 1028.35 1027.53 1026.44 1026.61 1026.24 1025.98 1026.44 1026.78 1026.77 1027.29 1027.27 1026.87 1027.31 1027.29 1027.59 1027.23 1027.72 1027.84 1027.26 1024.66 1021.33 1019.88 1019.91 1019.52 1019.22 1019.03 1018.68 1018.63 1018.34 1017.92 1017.21 1016.78 1016.24 1015.58 1015.64 1015.53 1015.39 1015.31 1015.56
1021.83 1021.82 1021.90 1021.90 1022.30 1022.67 1022.98 1023.40 1024.05 1025.05 1025.95 1026.43 1026.92 1027.35 1026.87 1025.78 1025.87 1026.20 1026.86 1026.75 1026.01 1026.14 1026.46 1026.76 1026.90 1026.94 1027.12 1027.08 1026.60 1026.39 1026.57 1025.95 1025.20 1023.23 1021.22 1020.02 1019.73 1019.32 1018.90 1018.55 1018.11 1017.83 1017.74 1017.04 1016.71 1016.76 1016.20 1015.64 1015.57 1015.81 1015.58 1015.27 1015.31 1015.52
1020.63 1020.66 1020.61 1021.05 1021.14 1021.79 1022.05 1022.68 1023.59 1024.49 1024.72 1024.93 1024.88 1024.64 1025.46 1026.04 1026.37 1026.71 1026.66 1026.35 1025.43 1025.65 1026.11 1026.26 1026.47 1026.72 1026.47 1025.84 1025.46 1024.72 1024.50 1023.05 1021.25 1020.42 1019.24 1018.51 1018.40 1017.56 1017.16 1016.73 1016.66 1016.67 1016.23 1015.92 1015.87 1016.08 1015.57 1015.19 1015.45 1015.62 1015.50 1015.28 1015.38 1015.41
1019.49 1019.04 1019.56 1019.79 1020.23 1020.71 1021.09 1022.54 1023.31 1023.40 1022.99 1022.85 1022.85 1023.00 1023.67 1024.23 1024.63 1024.90 1024.93 1024.78 1024.79 1025.27 1025.66 1025.59 1025.47 1024.49 1024.21 1023.79 1023.52 1022.94 1021.96 1019.95 1018.34 1017.07 1016.50 1016.83 1016.51 1015.92 1015.37 1015.48 1015.91 1015.50 1014.68 1014.52 1015.02 1015.28 1015.08 1014.72 1015.01 1015.12 1015.09 1015.04 1015.12 1015.20
1017.85 1017.70 1017.95 1018.44 1018.97 1019.74 1020.34 1021.05 1021.31 1021.12 1021.35 1021.66 1022.29 1022.37 1023.14 1022.68 1023.15 1023.42 1023.31 1023.63 1023.92 1023.88 1023.68 1023.13 1022.56 1022.44 1022.04 1021.07 1020.17 1018.79 1017.74 1016.85 1016.27 1016.08 1015.58 1015.35 1014.92 1014.70 1014.61 1014.58 1014.19 1014.21 1014.14 1013.93 1014.15 1014.43 1014.30 1014.38 1014.39 1014.11 1014.11 1014.37 1014.70 1014.86
1015.88 1016.20 1016.59 1017.10 1017.78 1018.61 1018.74 1018.91 1019.40 1019.05 1019.62 1020.41 1020.82 1021.13 1021.47 1021.35 1020.93 1020.47 1021.16 1021.66 1021.73 1021.79 1021.88 1021.45 1020.63 1019.62 1019.14 1018.20 1017.20 1016.25 1015.71 1015.53 1015.19 1014.87 1014.58 1014.02 1013.94 1014.09 1013.93 1013.72 1013.93 1013.86 1013.58 1013.35 1013.43 1013.67 1013.18 1013.19 1013.16 1012.95 1013.06 1013.56 1013.87 1014.13
1014.26 1014.62 1015.05 1015.71 1016.56 1016.82 1016.97 1016.88 1017.19 1017.83 1018.85 1019.08 1019.74 1019.94 1020.49 1020.25 1019.99 1020.32 1020.51 1020.96 1021.35 1021.65 1021.15 1020.01 1018.57 1017.37 1016.55 1015.58 1015.26 1015.19 1015.15 1014.90 1014.68 1014.56 1013.91 1013.18 1013.13 1013.64 1013.62 1013.46 1013.26 1012.83 1012.60 1012.65 1012.60 1012.54 1012.28 1012.29 1012.26 1012.08 1012.18 1012.57 1013.05 1013.30
1012.89 1012.87 1013.60 1014.37 1014.71 1014.82 1015.36 1015.81 1016.54 1017.11 1018.08 1018.95 1018.91 1019.55 1020.22 1020.48 1020.49 1020.59 1020.54 1020.70 1021.12 1020.33 1018.93 1017.35 1016.20 1015.42 1014.69 1014.83 1014.83 1015.18 1015.38 1015.46 1015.51 1015.38 1014.87 1014.00 1013.40 1013.70 1013.02 1012.69 1012.62 1012.32 1012.19 1011.79 1011.71 1011.41 1011.27 1010.99 1010.95 1011.21 1011.46 1011.73 1012.17 1012.59
1010.17 1011.23 1012.32 1013.00 1013.21 1013.95 1013.73 1015.12 1016.05 1017.38 1018.40 1019.52 1020.05 1019.74 1020.13 1020.45 1020.44 1020.31 1020.17 1020.35 1019.46 1017.31 1016.50 1016.17 1015.83 1015.85 1015.70 1015.95 1016.68 1016.62 1016.45 1016.18 1015.89 1015.49 1015.07 1014.81 1014.11 1013.72 1013.12 1012.70 1012.21 1011.57 1011.14 1010.85 1010.60 1010.39 1010.11 1009.99 1010.15 1010.46 1010.90 1011.18 1011.67 1012.19
1009.53 1009.66 1011.18 1012.48 1013.44 1014.47 1015.94 1016.25 1016.41 1017.71 1018.68 1019.59 1019.83 1020.06 1020.04 1020.22 1019.84 1019.62 1019.58 1018.62 1017.54 1017.34 1017.19 1017.40 1017.71 1017.69 1017.65 1017.40 1017.23 1016.98 1016.94 1016.75 1016.47 1016.22 1015.88 1015.35 1014.61 1014.03 1013.30 1012.51 1011.93 1011.18 1010.38 1009.87 1009.81 1009.64 1009.44 1009.37 1009.54 1010.02 1010.41 1010.79 1011.31 1011.86
1008.86 1009.48 1010.64 1012.15 1013.52 1015.18 1016.01 1016.46 1016.80 1017.74 1018.54 1019.02 1019.36 1019.36 1019.51 1019.35 1019.68 1020.00 1019.59 1018.36 1018.17 1018.23 1018.71 1019.05 1019.03 1018.64 1018.45 1018.17 1018.01 1017.78 1017.72 1017.66 1017.21 1016.76 1016.37 1015.63 1014.66 1013.74 1013.35 1012.46 1011.58 1010.74 1010.09 1009.45 1009.14 1008.98 1008.87 1008.87 1009.13 1009.48 1010.03 1010.39 1010.89 1011.34
1009.95 1011.36 1011.66 1012.98 1013.97 1015.20 1016.24 1016.91 1017.15 1017.84 1017.93 1018.42 1018.92 1018.91 1018.97 1019.20 1019.59 1020.24 1020.05 1018.96 1019.40 1019.88 1020.17 1020.28 1020.20 1020.11 1019.98 1019.33 1018.92 1018.61 1018.54 1018.39 1017.97 1017.26 1016.57 1016.02 1014.94 1013.75 1012.80 1011.97 1011.10 1010.39 1009.75 1009.18 1008.76 1008.50 1008.37 1008.52 1008.68 1009.03 1009.48 1009.91 1010.29 1010.78
1011.35 1012.41 1012.64 1013.29 1014.44 1014.99 1015.57 1016.09 1016.58 1016.65 1017.18 1018.01 1018.28 1018.62 1018.93 1019.39 1020.43 1020.38 1019.58 1020.17 1020.63 1020.89 1021.23 1021.23 1021.01 1020.62 1020.33 1020.18 1019.77 1019.17 1018.90 1018.93 1018.68 1017.82 1016.32 1015.57 1014.83 1014.17 1013.13 1012.09 1010.92 1009.90 1009.26 1008.77 1008.31 1008.05 1008.03 1008.11 1008.24 1008.50 1008.86 1009.24 1009.73 1010.42
1012.97 1013.51 1013.65 1013.95 1014.24 1014.83 1015.55 1016.03 1016.11 1016.19 1016.84 1017.18 1017.98 1018.93 1019.54 1020.45 1020.44 1019.71 1020.40 1021.12 1021.38 1021.59 1021.69 1021.63 1021.43 1021.22 1020.98 1020.64 1020.21 1019.61 1019.22 1018.96 1018.71 1017.81 1016.41 1015.19 1014.25 1013.63 1013.02 1012.00 1010.78 1009.69 1008.97 1008.48 1007.93 1007.55 1007.47 1007.52 1007.65 1007.91 1008.32 1008.76 1009.08 1009.60
1014.86 1014.98 1015.18 1015.21 1015.28 1015.51 1015.72 1016.39 1016.57 1016.52 1016.43 1016.87 1017.80 1019.19 1019.19 1019.37 1019.96 1020.74 1021.16 1021.69 1021.89 1021.85 1021.72 1021.55 1021.38 1021.25 1021.06 1020.70 1020.34 1019.87 1019.21 1018.65 1017.89 1016.77 1015.46 1014.08 1013.03 1012.55 1011.70 1011.06 1010.38 1009.37 1008.38 1007.66 1006.89 1006.61 1006.61 1006.72 1006.96 1007.32 1007.77 1008.17 1008.54 1009.06
1016.09 1016.06 1015.83 1016.03 1015.94 1016.21 1016.65 1017.08 1017.06 1017.05 1017.09 1017.34 1018.15 1018.81 1019.86 1020.49 1021.26 1021.52 1021.80 1022.01 1021.97 1021.83 1021.71 1021.53 1021.32 1021.19 1020.88 1020.51 1020.09 1019.72 1019.39 1018.98 1018.35 1017.21 1016.07 1014.69 1012.95 1011.59 1010.85 1010.45 1009.81 1008.94 1008.02 1007.13 1006.18 1005.63 1005.72 1005.95 1006.22 1006.70 1007.26 1007.79 1008.30 1008.93
1017.64 1017.21 1016.87 1016.79 1017.05 1017.24 1017.70 1017.79 1017.67 1017.69 1017.87 1018.35 1018.78 1019.59 1020.41 1021.29 1021.96 1022.17 1022.19 1022.18 1022.14 1022.09 1021.98 1021.84 1021.64 1021.50 1021.19 1020.67 1019.96 1019.26 1018.94 1018.69 1018.43 1017.99 1016.73 1014.91 1013.21 1011.41 1010.50 1009.76 1009.12 1008.25 1007.34 1006.57 1005.96 1005.52 1004.91 1005.11 1005.71 1006.46 1007.26 1007.93 1008.53 1009.17
1018.54 1018.26 1018.13 1018.01 1018.23 1018.51 1018.59 1018.58 1018.41 1018.34 1018.46 1018.74 1018.96 1019.49 1020.63 1021.53 1022.17 1022.49 1022.61 1022.60 1022.47 1022.26 1022.00 1021.88 1021.77 1021.55 1021.37 1020.88 1020.44 1019.79 1018.99 1018.20 1017.78 1016.95 1015.77 1013.89 1011.79 1010.83 1010.12 1009.40 1008.58 1007.75 1006.98 1006.38 1005.93 1005.56 1005.31 1005.52 1006.24 1006.84 1007.47 1007.97 1008.46 1009.00
1019.61 1019.35 1019.28 1018.98 1018.89 1018.89 1018.82 1018.69 1018.47 1018.57 1018.85 1019.19 1019.76 1020.33 1021.02 1021.47 1022.27 1022.92 1023.16 1022.97 1022.70 1022.54 1022.27 1022.31 1022.13 1021.78 1021.45 1021.13 1020.90 1020.53 1019.55 1019.13 1018.17 1016.79 1015.07 1013.15 1011.63 1010.46 1009.91 1009.30 1008.57 1007.77 1007.09 1006.71 1006.37 1006.17 1006.23 1006.64 1007.11 1007.56 1007.86 1008.19 1008.58 1009.12
1021.04 1020.55 1020.08 1019.83 1019.51 1019.21 1019.04 1018.93 1018.81 1019.38 1019.93 1020.49 1020.86 1021.12 1021.50 1021.82 1022.69 1023.34 1023.32 1023.22 1023.17 1022.93 1022.67 1022.39 1022.09 1021.78 1021.47 1021.34 1021.00 1020.46 1019.67 1019.07 1018.22 1017.04 1015.29 1013.93 1012.58 1011.76 1010.62 1010.00 1009.39 1008.73 1008.11 1007.78 1007.58 1007.48 1007.45 1007.67 1008.04 1008.40 1008.50 1008.62 1008.98 1009.43
Thickness
5516 5516 5520 5523 5528 5528 5531 5535 5539 5541 5543 5545 5546 5548 5551 5554 5551 5543 5538 5535 5528 5516 5524 5526 5528 5516 5505 5504 5509 5465 5470 5459 5448 5442 5449 5461 5433 5442 5434 5433 5407 5421 5401 5390 5389 5385 5447 5458 5437 5460 5489 5471 5450 5434
5504 5505 5505 5509 5512 5515 5521 5523 5524 5526 5529 5530 5533 5535 5537 5539 5540 5533 5526 5521 5518 5509 5513 5513 5516 5518 5518 5513 5491 5459 5482 5464 5468 5460 5454 5445 5443 5408 5436 5486 5422 5450 5470 5481 5454 5464 5496 5456 5477 5474 5460 5465 5469 5441
5490 5492 5494 5495 5499 5505 5508 5510 5512 5514 5514 5517 5521 5523 5525 5527 5528 5525 5517 5511 5503 5497 5504 5501 5514 5507 5500 5496 5491 5478 5464 5469 5462 5463 5458 5445 5452 5440 5452 5430 5426 5438 5456 5443 5454 5525 5498 5490 5493 5485 5478 5460 5463 5439
5478 5480 5483 5484 5488 5492 5496 5498 5500 5502 5503 5504 5507 5510 5512 5515 5515 5514 5508 5505 5501 5494 5497 5506 5493 5488 5486 5482 5480 5478 5470 5457 5454 5448 5443 5441 5447 5449 5441 5449 5459 5475 5438 5448 5469 5488 5514 5502 5487 5478 5466 5452 5440 5428
5467 5470 5471 5473 5476 5478 5480 5484 5487 5488 5490 5492 5493 5495 5499 5501 5503 5501 5497 5495 5494 5493 5496 5489 5478 5473 5472 5468 5466 5459 5453 5447 5441 5432 5428 5423 5431 5434 5431 5407 5420 5437 5449 5443 5482 5499 5480 5504 5501 5480 5443 5448 5435 5416
5457 5459 5461 5460 5463 5466 5468 5470 5472 5475 5477 5479 5480 5481 5484 5487 5489 5487 5482 5484 5479 5473 5471 5480 5459 5456 5455 5457 5454 5448 5442 5438 5432 5430 5430 5429 5412 5421 5428 5424 5513 5468 5455 5455 5467 5483 5460 5452 5462 5448 5432 5435 5422 5403
5448 5449 5449 5450 5453 5454 5456 5456 5458 5461 5463 5465 5467 5470 5473 5472 5474 5471 5470 5466 5463 5458 5452 5462 5453 5438 5439 5438 5432 5429 5424 5416 5412 5414 5415 5416 5405 5403 5408 5447 5517 5472 5454 5441 5434 5440 5462 5444 5449 5446 5420 5419 5401 5385
5435 5435 5437 5440 5440 5442 5442 5441 5443 5444 5445 5449 5452 5454 5456 5453 5453 5450 5449 5448 5445 5441 5437 5449 5447 5425 5417 5410 5404 5403 5405 5400 5402 5404 5398 5395 5385 5384 5400 5460 5465 5458 5434 5429 5429 5410 5416 5435 5432 5419 5392 5384 5381 5372
5423 5425 5425 5425 5428 5428 5429 5427 5425 5426 5427 5431 5432 5434 5436 5432 5430 5428 5432 5431 5428 5424 5430 5433 5443 5436 5401 5394 5382 5379 5380 5377 5378 5389 5380 5376 5377 5392 5428 5443 5441 5413 5412 5429 5420 5416 5414 5401 5403 5399 5376 5366 5367 5367
5415 5414 5415 5415 5414 5413 5413 5413 5415 5413 5413 5414 5416 5414 5412 5409 5410 5411 5414 5414 5414 5412 5411 5423 5412 5397 5384 5372 5370 5360 5357 5358 5353 5368 5356 5363 5380 5396 5415 5410 5406 5410 5407 5399 5397 5403 5405 5402 5392 5394 5369 5368 5362 5358
5403 5405 5404 5405 5403 5402 5402 5401 5398 5400 5399 5394 5385 5391 5387 5392 5393 5393 5399 5402 5397 5401 5405 5407 5394 5385 5370 5367 5366 5348 5337 5322 5316 5354 5342 5335 5356 5378 5390 5375 5380 5383 5379 5376 5369 5372 5372 5367 5365 5369 5371 5356 5353 5344
5392 5393 5394 5395 5394 5393 5390 5385 5382 5381 5377 5375 5371 5369 5370 5370 5371 5375 5390 5377 5383 5386 5372 5378 5367 5371 5357 5357 5360 5335 5328 5324 5327 5321 5317 5343 5379 5376 5354 5366 5374 5365 5363 5359 5352 5354 5357 5353 5351 5351 5348 5342 5337 5332
5381 5381 5382 5382 5381 5381 5378 5370 5364 5363 5358 5353 5347 5348 5349 5341 5355 5372 5365 5385 5355 5359 5345 5350 5346 5339 5343 5339 5336 5312 5308 5308 5300 5308 5319 5357 5366 5342 5350 5343 5357 5353 5346 5341 5344 5342 5340 5341 5341 5337 5332 5326 5324 5319
5365 5367 5369 5369 5369 5366 5362 5355 5346 5343 5335 5334 5326 5318 5326 5335 5363 5365 5358 5356 5352 5332 5328 5323 5319 5322 5326 5307 5299 5295 5294 5284 5274 5295 5314 5350 5343 5336 5334 5332 5329 5347 5339 5334 5333 5335 5334 5334 5333 5325 5320 5318 5318 5309
5350 5353 5356 5359 5355 5351 5346 5337 5321 5321 5316 5313 5303 5310 5331 5349 5324 5325 5317 5320 5324 5321 5319 5313 5307 5303 5293 5294 5284 5291 5278 5280 5286 5305 5322 5316 5313 5313 5323 5332 5324 5322 5323 5326 5323 5320 5324 5324 5316 5310 5309 5310 5306 5302
5335 5339 5348 5342 5342 5337 5330 5319 5302 5299 5297 5298 5301 5316 5315 5313 5316 5311 5311 5301 5309 5302 5292 5289 5279 5269 5265 5261 5271 5278 5268 5284 5304 5288 5300 5313 5313 5312 5315 5321 5319 5313 5312 5313 5312 5308 5309 5308 5302 5297 5296 5298 5294 5290
5316 5335 5332 5332 5327 5321 5314 5295 5285 5282 5284 5289 5305 5298 5303 5295 5313 5305 5301 5303 5292 5284 5271 5260 5271 5268 5247 5239 5259 5267 5267 5284 5301 5319 5323 5309 5307 5311 5308 5300 5295 5298 5305 5305 5297 5294 5294 5295 5289 5287 5289 5289 5285 5279
5312 5322 5320 5317 5311 5302 5294 5282 5279 5276 5278 5275 5284 5291 5283 5296 5307 5290 5284 5276 5275 5272 5262 5271 5267 5263 5258 5248 5260 5271 5275 5296 5298 5293 5299 5301 5297 5292 5291 5289 5289 5286 5285 5287 5285 5284 5282 5281 5282 5285 5285 5281 5276 5271
5310 5307 5306 5304 5295 5284 5282 5278 5273 5276 5275 5265 5264 5265 5274 5280 5286 5287 5281 5271 5268 5263 5259 5261 5265 5261 5264 5267 5289 5296 5297 5293 5289 5287 5286 5281 5277 5273 5272 5269 5263 5265 5267 5272 5272 5274 5279 5278 5279 5281 5280 5274 5271 5267
5294 5293 5294 5288 5278 5272 5272 5272 5267 5271 5260 5270 5256 5267 5281 5283 5272 5254 5253 5251 5247 5241 5247 5249 5266 5279 5278 5287 5289 5284 5281 5283 5278 5269 5274 5283 5279 5248 5249 5248 5252 5259 5258 5257 5262 5270 5271 5272 5272 5275 5273 5269 5264 5261
5283 5290 5283 5277 5274 5275 5274 5269 5261 5264 5252 5252 5254 5257 5247 5242 5244 5243 5241 5242 5241 5248 5257 5268 5278 5285 5284 5278 5276 5258 5256 5246 5244 5241 5245 5249 5256 5245 5248 5248 5239 5243 5245 5254 5257 5262 5270 5272 5272 5269 5267 5264 5260 5257
5296 5283 5275 5272 5275 5271 5279 5257 5262 5244 5241 5222 5235 5229 5218 5244 5255 5234 5236 5245 5247 5277 5277 5277 5277 5267 5259 5245 5234 5233 5232 5229 5229 5232 5234 5230 5230 5232 5236 5237 5239 5245 5249 5252 5254 5259 5264 5268 5266 5262 5259 5257 5254 5249
5289 5288 5272 5265 5260 5256 5247 5242 5251 5223 5234 5223 5225 5226 5219 5218 5226 5229 5241 5240 5255 5231 5232 5229 5223 5222 5223 5222 5221 5221 5217 5214 5214 5213 5212 5212 5217 5219 5223 5230 5234 5240 5247 5253 5250 5254 5257 5261 5261 5255 5253 5251 5246 5241
5286 5282 5278 5265 5255 5238 5234 5237 5232 5228 5215 5207 5216 5240 5226 5227 5219 5222 5218 5231 5224 5223 5214 5210 5209 5209 5207 5206 5206 5204 5202 5198 5197 5197 5198 5202 5207 5213 5214 5220 5227 5234 5239 5244 5247 5249 5252 5254 5253 5251 5246 5244 5241 5237
5281 5265 5265 5245 5230 5232 5222 5218 5222 5222 5237 5211 5226 5232 5225 5212 5220 5198 5207 5214 5200 5197 5197 5193 5191 5189 5181 5185 5189 5189 5186 5183 5184 5187 5189 5190 5197 5205 5211 5219 5224 5229 5233 5238 5241 5244 5246 5246 5247 5245 5242 5238 5236 5233
5266 5247 5254 5239 5225 5237 5234 5239 5225 5227 5222 5218 5221 5206 5203 5208 5196 5208 5208 5182 5181 5180 5174 5171 5174 5175 5176 5173 5172 5174 5174 5171 5170 5172 5182 5185 5188 5192 5199 5206 5214 5223 5227 5232 5237 5238 5239 5240 5241 5240 5238 5236 5235 5228
5259 5251 5240 5235 5236 5229 5224 5218 5219 5231 5229 5235 5210 5200 5187 5190 5198 5195 5180 5171 5167 5165 5164 5162 5160 5159 5159 5160 5161 5163 5163 5162 5162 5167 5174 5179 5183 5186 5190 5197 5207 5215 5221 5224 5229 5233 5235 5236 5237 5235 5233 5229 5230 5227
5216 5214 5215 5213 5218 5217 5226 5213 5197 5208 5205 5196 5196 5180 5199 5208 5197 5165 5163 5157 5155 5153 5153 5152 5152 5151 5150 5151 5152 5152 5154 5156 5159 5164 5172 5180 5185 5187 5193 5196 5200 5208 5216 5222 5228 5231 5232 5232 5232 5230 5227 5225 5225 5222
5198 5202 5207 5206 5209 5203 5195 5203 5193 5188 5191 5190 5187 5181 5160 5156 5148 5147 5147 5145 5143 5143 5143 5142 5142 5142 5142 5142 5144 5144 5145 5146 5149 5152 5157 5165 5177 5186 5190 5192 5196 5201 5208 5215 5224 5229 5228 5228 5227 5225 5222 5219 5217 5214
5179 5183 5190 5186 5192 5198 5179 5172 5173 5171 5171 5164 5161 5153 5147 5139 5134 5132 5132 5131 5130 5130 5130 5129 5130 5128 5129 5130 5135 5139 5139 5138 5138 5140 5146 5155 5165 5178 5183 5187 5190 5197 5204 5210 5215 5219 5226 5226 5222 5217 5211 5205 5204 5202
5172 5170 5169 5166 5163 5153 5154 5155 5158 5160 5159 5155 5152 5149 5136 5126 5121 5119 5118 5118 5118 5119 5120 5120 5118 5119 5118 5121 5122 5125 5128 5133 5133 5137 5143 5155 5170 5174 5176 5180 5186 5191 5197 5201 5204 5208 5213 5211 5205 5202 5200 5198 5196 5195
5157 5157 5159 5166 5156 5147 5144 5145 5148 5143 5137 5136 5133 5127 5122 5121 5113 5106 5104 5105 5106 5106 5108 5105 5105 5107 5108 5109 5109 5110 5116 5116 5121 5128 5139 5151 5160 5167 5169 5172 5175 5180 5184 5187 5190 5192 5192 5190 5188 5187 5187 5187 5187 5183
5124 5123 5129 5135 5136 5136 5136 5139 5143 5124 5115 5111 5112 5112 5107 5110 5097 5092 5091 5091 5090 5091 5092 5093 5094 5095 5095 5095 5096 5098 5103 5105 5110 5117 5128 5136 5144 5148 5155 5158 5160 5163 5167 5169 5170 5172 5173 5173 5173 5172 5173 5174 5173 5171